| time (UTC) | temp F | wind direction | speed knots | gust knots | rain 1hr in | rain 24hr in | rain mn in | humidity % | barometer mb |
| 20260504232011 | 59 | 115 | 0.9 | 2.6 | 0.00 | 0.00 | 0.00 | 53 | 1006.4 |
| 20260504231521 | 60 | 124 | 1.7 | 2.6 | 0.00 | 0.00 | 0.00 | 51 | 1006.3 |
| 20260504231006 | 61 | 114 | 0.9 | 2.6 | 0.00 | 0.00 | 0.00 | 51 | 1006.2 |
| 20260504230504 | 62 | 160 | 1.7 | 2.6 | 0.00 | 0.00 | 0.00 | 48 | 1006.1 |
| 20260504230008 | 64 | 124 | 0.9 | 2.6 | 0.00 | 0.00 | 0.00 | 45 | 1006.1 |
| 20260504225504 | 66 | 70 | 0.9 | 1.7 | 0.00 | 0.00 | 0.00 | 42 | 1006.0 |
| 20260504225005 | 66 | 207 | 0.0 | 0.9 | 0.00 | 0.00 | 0.00 | 40 | 1006.1 |
| 20260504224511 | 67 | 207 | 0.0 | 0.9 | 0.00 | 0.00 | 0.00 | 38 | 1006.0 |
| 20260504224006 | 67 | 207 | 0.0 | 0.9 | 0.00 | 0.00 | 0.00 | 39 | 1005.9 |
| 20260504223507 | 67 | 207 | 0.0 | 1.7 | 0.00 | 0.00 | 0.00 | 37 | 1005.9 |
| 20260504223016 | 68 | 283 | 0.9 | 1.7 | 0.00 | 0.00 | 0.00 | 35 | 1005.9 |
| 20260504222508 | 68 | 158 | 0.9 | 1.7 | 0.00 | 0.00 | 0.00 | 36 | 1005.9 |
| 20260504222009 | 68 | 348 | 0.0 | 1.7 | 0.00 | 0.00 | 0.00 | 35 | 1005.9 |
| 20260504221519 | 68 | 77 | 0.0 | 1.7 | 0.00 | 0.00 | 0.00 | 35 | 1005.9 |
| 20260504221009 | 68 | 218 | 0.9 | 1.7 | 0.00 | 0.00 | 0.00 | 36 | 1005.9 |
| 20260504220503 | 68 | 60 | 0.9 | 2.6 | 0.00 | 0.00 | 0.00 | 37 | 1005.9 |
| 20260504220006 | 68 | 245 | 0.9 | 3.5 | 0.00 | 0.00 | 0.00 | 36 | 1005.9 |
| 20260504215502 | 68 | 297 | 0.9 | 3.5 | 0.00 | 0.00 | 0.00 | 36 | 1005.9 |
| 20260504215006 | 68 | 246 | 0.9 | 2.6 | 0.00 | 0.00 | 0.00 | 38 | 1005.9 |
| 20260504214509 | 68 | 181 | 0.9 | 1.7 | 0.00 | 0.00 | 0.00 | 37 | 1005.9 |
| 20260504214006 | 68 | 285 | 0.9 | 1.7 | 0.00 | 0.00 | 0.00 | 36 | 1005.9 |
| 20260504213509 | 68 | 26 | 0.9 | 1.7 | 0.00 | 0.00 | 0.00 | 36 | 1005.9 |
| 20260504213026 | 68 | 265 | 0.0 | 1.7 | 0.00 | 0.00 | 0.00 | 36 | 1005.9 |
| 20260504212507 | 68 | 212 | 1.7 | 1.7 | 0.00 | 0.00 | 0.00 | 35 | 1005.8 |
| 20260504212007 | 68 | 276 | 0.9 | 1.7 | 0.00 | 0.00 | 0.00 | 36 | 1005.8 |
| 20260504211503 | 68 | 294 | 0.9 | 2.6 | 0.00 | 0.00 | 0.00 | 38 | 1005.8 |
| 20260504211003 | 68 | 268 | 0.9 | 2.6 | 0.00 | 0.00 | 0.00 | 37 | 1005.8 |
| 20260504210505 | 69 | 160 | 0.9 | 5.2 | 0.00 | 0.00 | 0.00 | 35 | 1005.8 |
| 20260504210004 | 69 | 204 | 1.7 | 5.2 | 0.00 | 0.00 | 0.00 | 36 | 1005.8 |
| 20260504205503 | 69 | 278 | 0.9 | 3.5 | 0.00 | 0.00 | 0.00 | 35 | 1005.8 |
| 20260504205002 | 69 | 10 | 0.9 | 3.5 | 0.00 | 0.00 | 0.00 | 37 | 1005.8 |
| 20260504204509 | 69 | 296 | 0.9 | 4.3 | 0.00 | 0.00 | 0.00 | 35 | 1005.8 |
| 20260504204006 | 69 | 195 | 1.7 | 4.3 | 0.00 | 0.00 | 0.00 | 34 | 1005.7 |
| 20260504203506 | 69 | 280 | 1.7 | 4.3 | 0.00 | 0.00 | 0.00 | 35 | 1005.7 |
| 20260504203009 | 69 | 288 | 0.9 | 4.3 | 0.00 | 0.00 | 0.00 | 36 | 1005.8 |
| 20260504202509 | 69 | 291 | 0.9 | 4.3 | 0.00 | 0.00 | 0.00 | 36 | 1005.8 |
| 20260504202006 | 69 | 286 | 0.9 | 4.3 | 0.00 | 0.00 | 0.00 | 37 | 1005.8 |
| 20260504201513 | 69 | 297 | 0.9 | 2.6 | 0.00 | 0.00 | 0.00 | 39 | 1005.9 |
| 20260504201006 | 68 | 280 | 0.9 | 3.5 | 0.00 | 0.00 | 0.00 | 39 | 1006.0 |
| 20260504200508 | 67 | 325 | 0.9 | 3.5 | 0.00 | 0.00 | 0.00 | 38 | 1006.0 |
| 20260504200006 | 67 | 281 | 1.7 | 4.3 | 0.00 | 0.00 | 0.00 | 38 | 1006.0 |
| 20260504195504 | 66 | 259 | 1.7 | 4.3 | 0.00 | 0.00 | 0.00 | 38 | 1006.0 |
| 20260504195003 | 66 | 281 | 1.7 | 7.8 | 0.00 | 0.00 | 0.00 | 39 | 1006.0 |
| 20260504194510 | 66 | 299 | 1.7 | 7.8 | 0.00 | 0.00 | 0.00 | 38 | 1006.0 |
| 20260504194003 | 67 | 339 | 1.7 | 3.5 | 0.00 | 0.00 | 0.00 | 39 | 1006.1 |
| 20260504193502 | 67 | 60 | 1.7 | 3.5 | 0.00 | 0.00 | 0.00 | 37 | 1006.1 |
| 20260504193013 | 67 | 281 | 0.9 | 7.0 | 0.00 | 0.00 | 0.00 | 37 | 1006.1 |
| 20260504192505 | 68 | 186 | 2.6 | 7.0 | 0.00 | 0.00 | 0.00 | 37 | 1006.1 |
| 20260504192006 | 69 | 283 | 0.9 | 5.2 | 0.00 | 0.00 | 0.00 | 37 | 1006.1 |
| 20260504191511 | 69 | 341 | 0.9 | 5.2 | 0.00 | 0.00 | 0.00 | 37 | 1006.0 |
| 20260504191009 | 69 | 234 | 1.7 | 5.2 | 0.00 | 0.00 | 0.00 | 36 | 1006.0 |
| 20260504190508 | 68 | 207 | 1.7 | 5.2 | 0.00 | 0.00 | 0.00 | 38 | 1006.0 |
| 20260504190021 | 66 | 233 | 0.9 | 4.3 | 0.00 | 0.00 | 0.00 | 40 | 1006.2 |
| 20260504185506 | 66 | 235 | 0.9 | 4.3 | 0.00 | 0.00 | 0.00 | 39 | 1006.2 |
| 20260504185007 | 65 | 268 | 0.9 | 2.6 | 0.00 | 0.00 | 0.00 | 42 | 1006.1 |
| 20260504184513 | 63 | 285 | 0.9 | 1.7 | 0.00 | 0.00 | 0.00 | 42 | 1006.2 |
| 20260504184005 | 62 | 287 | 0.0 | 1.7 | 0.00 | 0.00 | 0.00 | 45 | 1006.3 |
| 20260504183503 | 62 | 305 | 0.9 | 1.7 | 0.00 | 0.00 | 0.00 | 47 | 1006.3 |
| 20260504183008 | 62 | 309 | 0.9 | 2.6 | 0.00 | 0.00 | 0.00 | 42 | 1006.3 |
| 20260504182505 | 62 | 270 | 0.9 | 3.5 | 0.00 | 0.00 | 0.00 | 44 | 1006.2 |
| 20260504182008 | 63 | 301 | 0.9 | 4.3 | 0.00 | 0.00 | 0.00 | 42 | 1006.3 |
| 20260504181510 | 63 | 319 | 0.9 | 4.3 | 0.00 | 0.00 | 0.00 | 44 | 1006.3 |
| 20260504181007 | 63 | 309 | 0.0 | 1.7 | 0.00 | 0.00 | 0.00 | 43 | 1006.3 |
| 20260504180507 | 63 | 304 | 0.9 | 1.7 | 0.00 | 0.00 | 0.00 | 42 | 1006.2 |
| 20260504180020 | 63 | 266 | 0.9 | 2.6 | 0.00 | 0.00 | 0.00 | 42 | 1006.2 |
| 20260504175507 | 63 | 208 | 0.9 | 3.5 | 0.00 | 0.00 | 0.00 | 42 | 1006.2 |
| 20260504175010 | 63 | 268 | 0.9 | 5.2 | 0.00 | 0.00 | 0.00 | 41 | 1006.2 |
| 20260504174522 | 63 | 271 | 1.7 | 6.1 | 0.00 | 0.00 | 0.00 | 39 | 1006.2 |
| 20260504174007 | 63 | 313 | 1.7 | 6.1 | 0.00 | 0.00 | 0.00 | 39 | 1006.2 |
| 20260504173502 | 63 | 256 | 0.9 | 5.2 | 0.00 | 0.00 | 0.00 | 41 | 1006.2 |
| 20260504173011 | 63 | 248 | 0.9 | 5.2 | 0.00 | 0.00 | 0.00 | 41 | 1006.1 |
| 20260504172503 | 63 | 343 | 1.7 | 4.3 | 0.00 | 0.00 | 0.00 | 40 | 1006.0 |
| 20260504172006 | 64 | 311 | 1.7 | 5.2 | 0.00 | 0.00 | 0.00 | 38 | 1005.9 |
| 20260504171508 | 64 | 28 | 1.7 | 7.0 | 0.00 | 0.00 | 0.00 | 37 | 1005.9 |
| 20260504171008 | 65 | 319 | 2.6 | 7.0 | 0.00 | 0.00 | 0.00 | 36 | 1006.0 |
| 20260504170504 | 66 | 190 | 2.6 | 7.0 | 0.00 | 0.00 | 0.00 | 35 | 1005.9 |
| 20260504151004 | 60 | 265 | 1.7 | 4.3 | 0.00 | 0.00 | 0.00 | 46 | 1007.1 |
| 20260504150506 | 60 | 207 | 1.7 | 5.2 | 0.00 | 0.00 | 0.00 | 51 | 1007.2 |
| 20260504141015 | 55 | 245 | 0.9 | 2.6 | 0.00 | 0.00 | 0.00 | 57 | 1007.9 |
| 20260504140507 | 55 | 203 | 0.9 | 3.5 | 0.00 | 0.00 | 0.00 | 59 | 1008.0 |
| 20260504130504 | 52 | 321 | 0.9 | 4.3 | 0.00 | 0.00 | 0.00 | 63 | 1008.7 |
| 20260504110504 | 41 | 221 | 0.0 | 0.9 | 0.00 | 0.01 | 0.00 | 74 | 1008.9 |
| 20260504100507 | 37 | 119 | 0.0 | 0.9 | 0.00 | 0.01 | 0.00 | 80 | 1008.9 |
| 20260504082006 | 33 | 120 | 0.0 | 0.0 | 0.00 | 0.01 | 0.00 | 88 | 1008.6 |
| 20260504081509 | 33 | 120 | 0.0 | 0.0 | 0.00 | 0.01 | 0.00 | 88 | 1008.5 |
| 20260504081010 | 33 | 120 | 0.0 | 0.0 | 0.00 | 0.01 | 0.00 | 88 | 1008.6 |
| 20260504080507 | 32 | 120 | 0.0 | 0.0 | 0.00 | 0.01 | 0.00 | 88 | 1008.5 |
| 20260504050505 | 33 | 228 | 0.0 | 0.9 | 0.00 | 0.01 | 0.00 | 86 | 1008.5 |
| 20260504050010 | 33 | 227 | 0.0 | 0.9 | 0.00 | 0.01 | 0.00 | 85 | 1008.5 |
| 20260504045505 | 33 | 227 | 0.0 | 0.0 | 0.00 | 0.01 | 0.00 | 85 | 1008.5 |
| 20260504045005 | 34 | 227 | 0.0 | 0.0 | 0.00 | 0.01 | 0.00 | 85 | 1008.5 |
| 20260504044510 | 34 | 227 | 0.0 | 0.0 | 0.00 | 0.01 | 0.00 | 84 | 1008.3 |
| 20260504044011 | 34 | 227 | 0.0 | 0.0 | 0.00 | 0.01 | 0.00 | 84 | 1008.4 |
| 20260504043508 | 34 | 228 | 0.0 | 0.0 | 0.00 | 0.01 | 0.00 | 84 | 1008.5 |
| 20260504043014 | 35 | 227 | 0.0 | 0.0 | 0.00 | 0.01 | 0.00 | 83 | 1008.5 |
| 20260504042508 | 35 | 227 | 0.0 | 0.0 | 0.00 | 0.01 | 0.00 | 82 | 1008.5 |
| 20260504042009 | 35 | 227 | 0.0 | 0.0 | 0.00 | 0.01 | 0.00 | 82 | 1008.5 |
| 20260504041519 | 35 | 227 | 0.0 | 0.0 | 0.00 | 0.01 | 0.00 | 82 | 1008.5 |
| 20260504041008 | 36 | 228 | 0.0 | 0.0 | 0.00 | 0.01 | 0.00 | 81 | 1008.5 |
| 20260504040507 | 36 | 228 | 0.0 | 0.0 | 0.00 | 0.01 | 0.00 | 81 | 1008.4 |
| 20260504040026 | 36 | 227 | 0.0 | 0.0 | 0.00 | 0.01 | 0.00 | 81 | 1008.4 |
| 20260504035509 | 36 | 228 | 0.0 | 0.0 | 0.00 | 0.01 | 0.01 | 79 | 1008.5 |
| 20260504035004 | 36 | 227 | 0.0 | 0.9 | 0.00 | 0.01 | 0.01 | 78 | 1008.3 |
| 20260504034517 | 36 | 230 | 0.0 | 0.9 | 0.00 | 0.01 | 0.01 | 78 | 1008.3 |
| 20260504034006 | 36 | 255 | 0.0 | 0.9 | 0.00 | 0.01 | 0.01 | 77 | 1008.3 |
| 20260504033505 | 36 | 241 | 0.0 | 0.9 | 0.00 | 0.01 | 0.01 | 76 | 1008.3 |
| 20260504033012 | 36 | 238 | 0.0 | 0.9 | 0.00 | 0.01 | 0.01 | 78 | 1008.2 |
| 20260504032509 | 36 | 238 | 0.0 | 0.9 | 0.00 | 0.01 | 0.01 | 77 | 1008.3 |
| 20260504032007 | 37 | 238 | 0.0 | 0.9 | 0.00 | 0.01 | 0.01 | 78 | 1008.3 |
| 20260504031518 | 36 | 238 | 0.0 | 0.9 | 0.00 | 0.01 | 0.01 | 77 | 1008.2 |
| 20260504031010 | 37 | 238 | 0.0 | 0.9 | 0.00 | 0.01 | 0.01 | 78 | 1008.2 |
| 20260504030508 | 37 | 238 | 0.0 | 0.9 | 0.00 | 0.02 | 0.01 | 78 | 1008.2 |
| 20260504030023 | 37 | 238 | 0.0 | 0.0 | 0.00 | 0.02 | 0.01 | 78 | 1008.2 |
| 20260504025510 | 37 | 238 | 0.0 | 0.0 | 0.00 | 0.02 | 0.01 | 76 | 1008.2 |
| 20260504025009 | 38 | 238 | 0.0 | 0.0 | 0.00 | 0.02 | 0.01 | 75 | 1008.2 |
| 20260504024533 | 38 | 238 | 0.0 | 0.0 | 0.00 | 0.02 | 0.01 | 75 | 1008.2 |
| 20260504024005 | 38 | 238 | 0.0 | 0.0 | 0.00 | 0.02 | 0.01 | 73 | 1008.2 |
| 20260504023504 | 38 | 238 | 0.0 | 0.0 | 0.00 | 0.02 | 0.01 | 71 | 1008.3 |
| 20260504023010 | 38 | 238 | 0.0 | 0.0 | 0.00 | 0.02 | 0.01 | 70 | 1008.3 |
| 20260504022506 | 38 | 238 | 0.0 | 0.9 | 0.00 | 0.02 | 0.01 | 70 | 1008.3 |
| 20260504022007 | 38 | 238 | 0.0 | 0.9 | 0.00 | 0.02 | 0.01 | 71 | 1008.3 |
| 20260504021516 | 39 | 295 | 0.0 | 0.9 | 0.00 | 0.02 | 0.01 | 69 | 1008.2 |
| 20260504021007 | 39 | 295 | 0.0 | 0.9 | 0.00 | 0.02 | 0.01 | 68 | 1008.2 |
| 20260504020508 | 39 | 295 | 0.0 | 0.9 | 0.00 | 0.02 | 0.01 | 67 | 1008.3 |
| 20260504020020 | 39 | 295 | 0.0 | 0.9 | 0.00 | 0.02 | 0.01 | 67 | 1008.2 |
| 20260504015510 | 39 | 295 | 0.0 | 0.9 | 0.00 | 0.02 | 0.01 | 66 | 1008.3 |
| 20260504015013 | 40 | 295 | 0.0 | 0.9 | 0.00 | 0.02 | 0.01 | 66 | 1008.2 |
| 20260504014524 | 40 | 295 | 0.0 | 0.9 | 0.00 | 0.02 | 0.01 | 66 | 1008.2 |
| 20260504014013 | 40 | 295 | 0.0 | 0.9 | 0.00 | 0.03 | 0.01 | 66 | 1008.1 |
| 20260504013507 | 40 | 295 | 0.0 | 0.9 | 0.00 | 0.03 | 0.01 | 69 | 1008.1 |
| 20260504013034 | 41 | 295 | 0.0 | 0.9 | 0.00 | 0.03 | 0.01 | 66 | 1008.0 |
| 20260504012504 | 41 | 295 | 0.0 | 0.9 | 0.00 | 0.03 | 0.01 | 65 | 1008.0 |
| 20260504012008 | 41 | 295 | 0.0 | 0.9 | 0.00 | 0.04 | 0.01 | 64 | 1008.1 |
| 20260504011512 | 42 | 295 | 0.0 | 0.9 | 0.00 | 0.04 | 0.01 | 65 | 1007.9 |
| 20260504011012 | 42 | 295 | 0.0 | 0.0 | 0.00 | 0.05 | 0.01 | 63 | 1007.8 |
| 20260504010507 | 43 | 295 | 0.0 | 0.9 | 0.00 | 0.05 | 0.01 | 64 | 1007.8 |
| 20260504010016 | 43 | 295 | 0.0 | 1.7 | 0.00 | 0.05 | 0.01 | 62 | 1007.5 |
| 20260504005507 | 43 | 295 | 0.0 | 2.6 | 0.00 | 0.06 | 0.01 | 63 | 1007.5 |
| 20260504005008 | 43 | 280 | 0.0 | 2.6 | 0.00 | 0.06 | 0.01 | 60 | 1007.4 |
| 20260504004522 | 43 | 310 | 0.0 | 1.7 | 0.00 | 0.06 | 0.01 | 61 | 1007.3 |
| 20260504004007 | 43 | 316 | 0.9 | 1.7 | 0.00 | 0.06 | 0.01 | 63 | 1007.1 |
| 20260504003511 | 43 | 314 | 0.9 | 0.9 | 0.00 | 0.06 | 0.01 | 61 | 1007.0 |
| 20260504003037 | 43 | 302 | 0.0 | 0.9 | 0.00 | 0.06 | 0.01 | 61 | 1006.9 |
| 20260504002507 | 44 | 302 | 0.0 | 0.9 | 0.00 | 0.06 | 0.01 | 60 | 1006.8 |
| 20260504002012 | 44 | 301 | 0.0 | 1.7 | 0.00 | 0.06 | 0.01 | 59 | 1006.8 |
| 20260504001526 | 44 | 307 | 0.9 | 1.7 | 0.00 | 0.06 | 0.01 | 55 | 1006.7 |
| 20260504001007 | 44 | 301 | 0.0 | 1.7 | 0.00 | 0.06 | 0.01 | 59 | 1006.7 |
| 20260504000507 | 45 | 330 | 0.0 | 1.7 | 0.00 | 0.06 | 0.01 | 57 | 1006.6 |
| 20260504000016 | 45 | 317 | 0.0 | 1.7 | 0.00 | 0.06 | 0.01 | 58 | 1006.5 |
| 20260503235507 | 45 | 323 | 0.0 | 1.7 | 0.00 | 0.06 | 0.01 | 57 | 1006.5 |
| 20260503235008 | 45 | 319 | 0.9 | 1.7 | 0.00 | 0.06 | 0.01 | 56 | 1006.4 |
| 20260503234504 | 46 | 331 | 0.9 | 2.6 | 0.00 | 0.06 | 0.01 | 52 | 1006.3 |
| 20260503234004 | 46 | 302 | 0.9 | 2.6 | 0.00 | 0.06 | 0.01 | 53 | 1006.2 |
| 20260503233505 | 46 | 290 | 0.9 | 4.3 | 0.00 | 0.06 | 0.01 | 54 | 1006.1 |
| 20260503233004 | 47 | 307 | 0.9 | 4.3 | 0.00 | 0.06 | 0.01 | 50 | 1006.1 |
| 20260503232503 | 47 | 284 | 0.0 | 1.7 | 0.00 | 0.06 | 0.01 | 57 | 1005.9 |